Location: Newark
(44.1667°N, 8.2500°E)
Time: 13:37:02
(UTC+00:00)

Explorer 11/Cluster Stage 4 - Pass Details

Date: 18 December 2019
Orbit: 467 x 1259 km, 28.8° (Epoch: 25 January)

Event Time Altitude Azimuth Distance (km) Brightness Sun altitude
Rises 05:38:21 0° 216° (SW) 4,149 10.1 -13.5°
Reaches altitude 10° 05:42:25 10° 198° (SSW) 3,223 9.7 -12.8°
Maximum altitude 05:47:18 17° 161° (SSE) 2,705 9.9 -12.0°
Drops below altitude 10° 05:52:07 10° 124° (SE) 3,160 11.1 -11.2°
Sets 05:56:02 0° 106° (ESE) 4,037 12.4 -10.5°
